Погода в Бейнеу

Казахстан     45°19′22″N   55°11′19″E
темп.,
°C
ветер,
м/с
пор.,
м/с
влажн.,
%
обл.,
%
осадки,
мм/ч
давл.,
гПа
погр.,
м
9 мая, вс
вс923:00+20св44310 0.0 101742
02:00+18в33433 0.0 101732
05:00+16юв33475 0.0 101713
08:00+18юв34435 0.0 1018157
11:00+23юв442878 0.0 10171517
14:00+25юв33205 0.0 10162216
17:00+27юв45160 0.0 10142396
20:00+26вюв56175 0.0 1013169
10 мая, пн
пн1023:00+22юв572258 0.0 101498
02:00+20ююв712303 0.0 1014187
05:00+18юв510311 0.0 1014140
08:00+20юв712235 0.0 1014369
11:00+26юв78165 0.0 10141471
14:00+29ююв671429 0.0 10132864
17:00+30ююв6713100 0.0 10123390
20:00+24зсз8836100 0.0 1014381
11 мая, вт
вт1123:00+16сз910635 0.0 1017469
02:00+15сз786635 0.0 1018495
05:00+15ссз676687 0.0 1019412
08:00+15ссв466040 0.0 1020342
11:00+22вюв68328 0.0 1019789
14:00+30вюв91014100 0.0 10162478
17:00+30вюв11121694 0.0 10163423
20:00+26вюв121526100 0.0 1017812
12 мая, ср
ср1223:00+21вюв1119365 0.0 1018502
02:00+19вюв814405 0.0 1019437
05:00+18вюв7145087 0.0 1020306
08:00+20вюв913488 0.0 1021555
11:00+26вюв9102945 0.0 10211181
14:00+30вюв89205 0.0 10201801
17:00+31вюв88185 0.0 10192196
20:00+27вюв91123100 0.0 1020829
13 мая, чт
чт1323:00+22вюв101431100 0.0 1021467
02:00+20вюв8142888 0.0 1021318
05:00+18в5113086 0.1 1021176
08:00+20вюв7112965 0.3 1021350
11:00+27вюв771611 0.3 10211215
14:00+30вюв77105 0.0 10212414
17:00+31в76100 0.0 10202718
20:00+28в811120 0.0 1020453